Overview Statistics Trail Chart Weather Telemetry Raw packets
 

This is the latest recevied weather packets stored in our database for station/object K7OWW-2. If no packets are shown the sender has not sent any weather packets the latest 10 day(s).

<< 20 21 22 23 24 25 26 >>
Time Temp. Humidity Pressure Rain* Wind** Luminosity Snow
1788218932 27.22° C 19% 1008.4 hPa 0 mm - - -
1788218332 27.22° C 18% 1008.4 hPa 0 mm - - -
1788217732 27.78° C 16% 1008.6 hPa 0 mm - - -
1788217132 27.78° C 18% 1008.7 hPa 0 mm - - -
1788216532 27.78° C 18% 1008.8 hPa 0 mm - - -
1788215932 27.22° C 20% 1008.9 hPa 0 mm - - -
1788215333 27.78° C 20% 1008.9 hPa 0 mm - - -
1788214732 27.78° C 19% 1009.1 hPa 0 mm - - -
1788214133 27.22° C 20% 1009.2 hPa 0 mm - - -
1788213532 27.22° C 20% 1009.3 hPa 0 mm - - -
1788212933 27.22° C 20% 1009.5 hPa 0 mm - - -
1788212333 26.67° C 20% 1009.7 hPa 0 mm - - -
1788211733 27.22° C 20% 1009.9 hPa 0 mm - - -
1788211133 27.22° C 19% 1010 hPa 0 mm - - -
1788210533 26.67° C 19% 1010.2 hPa 0 mm - - -
1788209933 26.11° C 20% 1010.3 hPa 0 mm - - -
1788209333 26.11° C 20% 1010.3 hPa 0 mm - - -
1788208733 26.11° C 20% 1010.7 hPa 0 mm - - -
1788208133 26.11° C 20% 1010.8 hPa 0 mm - - -
1788207533 26.11° C 20% 1010.9 hPa 0 mm - - -
1788206933 26.11° C 18% 1011.1 hPa 0 mm - - -
1788206333 25.56° C 19% 1011.3 hPa 0 mm - - -
1788205735 25.56° C 20% 1011.5 hPa 0 mm - - -
1788205133 25.56° C 20% 1011.6 hPa 0 mm - - -
1788204533 25.56° C 22% 1011.9 hPa 0 mm - - -

* Rain latest hour (hover to see other rain measurements)
** Current wind speed in m/s (hover to see current wind gust speed)